Date_Time,Julian_Date,Latitude,Longitude,Instrument_Depth,U,V,Speed,Direction
(yyyy-mm-dd hh:mn:ss UTC),(JD),(+ deg. North),(+ deg. East),(m),(cm/s),(cm/s),(cm/s),(deg True)
1983-11-28 20:30:00 UTC,2445667.354167,28.7467,-95.2267,0192,6.65,31.30,32.0000,12.0000
1983-11-28 21:00:00 UTC,2445667.375000,28.7467,-95.2267,0192,7.74,31.05,32.0000,14.0000
1983-11-28 21:30:00 UTC,2445667.395833,28.7467,-95.2267,0192,9.06,29.65,31.0000,17.0000
1983-11-28 22:00:00 UTC,2445667.416667,28.7467,-95.2267,0192,9.27,28.53,30.0000,18.0000
1983-11-28 22:30:00 UTC,2445667.437500,28.7467,-95.2267,0192,9.77,28.37,30.0000,19.0000
1983-11-28 23:00:00 UTC,2445667.458333,28.7467,-95.2267,0192,10.42,30.26,32.0000,19.0000
1983-11-28 23:30:00 UTC,2445667.479167,28.7467,-95.2267,0192,10.74,31.20,33.0000,19.0000
1983-11-29 00:00:00 UTC,2445667.500000,28.7467,-95.2267,0192,10.60,29.13,31.0000,20.0000
1983-11-29 00:30:00 UTC,2445667.520833,28.7467,-95.2267,0192,11.24,27.82,30.0000,22.0000
1983-11-29 01:00:00 UTC,2445667.541667,28.7467,-95.2267,0192,11.72,27.62,30.0000,23.0000
1983-11-29 01:30:00 UTC,2445667.562500,28.7467,-95.2267,0192,12.20,27.41,30.0000,24.0000
1983-11-29 02:00:00 UTC,2445667.583333,28.7467,-95.2267,0192,13.59,27.86,31.0000,26.0000
1983-11-29 02:30:00 UTC,2445667.604167,28.7467,-95.2267,0192,14.54,26.24,30.0000,29.0000
1983-11-29 03:00:00 UTC,2445667.625000,28.7467,-95.2267,0192,15.37,24.59,29.0000,32.0000
1983-11-29 03:30:00 UTC,2445667.645833,28.7467,-95.2267,0192,15.25,23.48,28.0000,33.0000
1983-11-29 04:00:00 UTC,2445667.666667,28.7467,-95.2267,0192,14.91,21.30,26.0000,35.0000
1983-11-29 04:30:00 UTC,2445667.687500,28.7467,-95.2267,0192,14.44,19.17,24.0000,37.0000
1983-11-29 05:00:00 UTC,2445667.708333,28.7467,-95.2267,0192,14.78,18.91,24.0000,38.0000
1983-11-29 05:30:00 UTC,2445667.729167,28.7467,-95.2267,0192,14.44,19.17,24.0000,37.0000
1983-11-29 06:00:00 UTC,2445667.750000,28.7467,-95.2267,0192,14.34,20.48,25.0000,35.0000
1983-11-29 06:30:00 UTC,2445667.770833,28.7467,-95.2267,0192,13.52,18.61,23.0000,36.0000
1983-11-29 07:00:00 UTC,2445667.791667,28.7467,-95.2267,0192,14.47,17.87,23.0000,39.0000
1983-11-29 07:30:00 UTC,2445667.812500,28.7467,-95.2267,0192,15.39,17.09,23.0000,42.0000
1983-11-29 08:00:00 UTC,2445667.833333,28.7467,-95.2267,0192,15.69,16.82,23.0000,43.0000
1983-11-29 08:30:00 UTC,2445667.854167,28.7467,-95.2267,0192,14.72,16.35,22.0000,42.0000
1983-11-29 09:00:00 UTC,2445667.875000,28.7467,-95.2267,0192,15.98,16.54,23.0000,44.0000
1983-11-29 09:30:00 UTC,2445667.895833,28.7467,-95.2267,0192,17.26,16.67,24.0000,46.0000
1983-11-29 10:00:00 UTC,2445667.916667,28.7467,-95.2267,0192,19.02,17.73,26.0000,47.0000
1983-11-29 10:30:00 UTC,2445667.937500,28.7467,-95.2267,0192,19.32,17.40,26.0000,48.0000
1983-11-29 11:00:00 UTC,2445667.958333,28.7467,-95.2267,0192,19.32,17.40,26.0000,48.0000
1983-11-29 11:30:00 UTC,2445667.979167,28.7467,-95.2267,0192,17.98,17.37,25.0000,46.0000
1983-11-29 12:00:00 UTC,2445668.000000,28.7467,-95.2267,0192,17.05,18.28,25.0000,43.0000
1983-11-29 12:30:00 UTC,2445668.020833,28.7467,-95.2267,0192,16.73,18.58,25.0000,42.0000
1983-11-29 13:00:00 UTC,2445668.041667,28.7467,-95.2267,0192,16.40,18.87,25.0000,41.0000
1983-11-29 13:30:00 UTC,2445668.062500,28.7467,-95.2267,0192,16.71,19.92,26.0000,40.0000
1983-11-29 14:00:00 UTC,2445668.083333,28.7467,-95.2267,0192,16.99,20.98,27.0000,39.0000
1983-11-29 14:30:00 UTC,2445668.104167,28.7467,-95.2267,0192,16.99,20.98,27.0000,39.0000
1983-11-29 15:00:00 UTC,2445668.125000,28.7467,-95.2267,0192,17.36,20.68,27.0000,40.0000
1983-11-29 15:30:00 UTC,2445668.145833,28.7467,-95.2267,0192,18.07,20.06,27.0000,42.0000
1983-11-29 16:00:00 UTC,2445668.166667,28.7467,-95.2267,0192,17.73,19.02,26.0000,43.0000
1983-11-29 16:30:00 UTC,2445668.187500,28.7467,-95.2267,0192,16.73,18.58,25.0000,42.0000
1983-11-29 17:00:00 UTC,2445668.208333,28.7467,-95.2267,0192,16.67,17.26,24.0000,44.0000
1983-11-29 17:30:00 UTC,2445668.229167,28.7467,-95.2267,0192,16.54,15.98,23.0000,46.0000
1983-11-29 18:00:00 UTC,2445668.250000,28.7467,-95.2267,0192,15.11,14.59,21.0000,46.0000
1983-11-29 18:30:00 UTC,2445668.270833,28.7467,-95.2267,0192,12.96,13.90,19.0000,43.0000
1983-11-29 19:00:00 UTC,2445668.291667,28.7467,-95.2267,0192,11.59,12.43,17.0000,43.0000
1983-11-29 19:30:00 UTC,2445668.312500,28.7467,-95.2267,0192,11.51,11.11,16.0000,46.0000
1983-11-29 20:00:00 UTC,2445668.333333,28.7467,-95.2267,0192,11.15,10.04,15.0000,48.0000
1983-11-29 20:30:00 UTC,2445668.354167,28.7467,-95.2267,0192,10.07,9.73,14.0000,46.0000
1983-11-29 21:00:00 UTC,2445668.375000,28.7467,-95.2267,0192,9.03,9.35,13.0000,44.0000
1983-11-29 21:30:00 UTC,2445668.395833,28.7467,-95.2267,0192,9.19,9.19,13.0000,45.0000
1983-11-29 22:00:00 UTC,2445668.416667,28.7467,-95.2267,0192,8.34,8.63,12.0000,44.0000
1983-11-29 22:30:00 UTC,2445668.437500,28.7467,-95.2267,0192,8.87,9.51,13.0000,43.0000
1983-11-29 23:00:00 UTC,2445668.458333,28.7467,-95.2267,0192,8.87,9.51,13.0000,43.0000
1983-11-29 23:30:00 UTC,2445668.479167,28.7467,-95.2267,0192,8.87,9.51,13.0000,43.0000
1983-11-30 00:00:00 UTC,2445668.500000,28.7467,-95.2267,0192,8.70,9.66,13.0000,42.0000
1983-11-30 00:30:00 UTC,2445668.520833,28.7467,-95.2267,0192,8.36,9.96,13.0000,40.0000
1983-11-30 01:00:00 UTC,2445668.541667,28.7467,-95.2267,0192,7.71,9.19,12.0000,40.0000
1983-11-30 01:30:00 UTC,2445668.562500,28.7467,-95.2267,0192,7.71,9.19,12.0000,40.0000
1983-11-30 02:00:00 UTC,2445668.583333,28.7467,-95.2267,0192,6.15,9.12,11.0000,34.0000
1983-11-30 02:30:00 UTC,2445668.604167,28.7467,-95.2267,0192,6.71,9.95,12.0000,34.0000
1983-11-30 03:00:00 UTC,2445668.625000,28.7467,-95.2267,0192,7.07,8.43,11.0000,40.0000
1983-11-30 03:30:00 UTC,2445668.645833,28.7467,-95.2267,0192,7.36,8.17,11.0000,42.0000
1983-11-30 04:00:00 UTC,2445668.666667,28.7467,-95.2267,0192,6.25,6.47,9.0000,44.0000
1983-11-30 04:30:00 UTC,2445668.687500,28.7467,-95.2267,0192,5.95,5.35,8.0000,48.0000
1983-11-30 05:00:00 UTC,2445668.708333,28.7467,-95.2267,0192,5.36,4.50,7.0000,50.0000
1983-11-30 05:30:00 UTC,2445668.729167,28.7467,-95.2267,0192,5.20,3.00,6.0000,60.0000
1983-11-30 06:00:00 UTC,2445668.750000,28.7467,-95.2267,0192,4.94,0.78,5.0000,81.0000
1983-11-30 06:30:00 UTC,2445668.770833,28.7467,-95.2267,0192,3.88,-0.97,4.0000,104.0000
1983-11-30 07:00:00 UTC,2445668.791667,28.7467,-95.2267,0192,2.68,-2.97,4.0000,138.0000
1983-11-30 07:30:00 UTC,2445668.812500,28.7467,-95.2267,0192,1.43,-3.73,4.0000,159.0000
1983-11-30 08:00:00 UTC,2445668.833333,28.7467,-95.2267,0192,0.94,-5.93,6.0000,171.0000
1983-11-30 08:30:00 UTC,2445668.854167,28.7467,-95.2267,0192,0.00,-7.00,7.0000,180.0000
1983-11-30 09:00:00 UTC,2445668.875000,28.7467,-95.2267,0192,-1.39,-7.88,8.0000,190.0000
1983-11-30 09:30:00 UTC,2445668.895833,28.7467,-95.2267,0192,-2.33,-8.69,9.0000,195.0000
1983-11-30 10:00:00 UTC,2445668.916667,28.7467,-95.2267,0192,-2.48,-8.65,9.0000,196.0000
1983-11-30 10:30:00 UTC,2445668.937500,28.7467,-95.2267,0192,-2.33,-8.69,9.0000,195.0000
1983-11-30 11:00:00 UTC,2445668.958333,28.7467,-95.2267,0192,-2.18,-8.73,9.0000,194.0000
1983-11-30 11:30:00 UTC,2445668.979167,28.7467,-95.2267,0192,-2.34,-7.65,8.0000,197.0000
1983-11-30 12:00:00 UTC,2445669.000000,28.7467,-95.2267,0192,-2.39,-6.58,7.0000,200.0000
1983-11-30 12:30:00 UTC,2445669.020833,28.7467,-95.2267,0192,-2.51,-6.54,7.0000,201.0000
1983-11-30 13:00:00 UTC,2445669.041667,28.7467,-95.2267,0192,-2.54,-5.44,6.0000,205.0000
1983-11-30 13:30:00 UTC,2445669.062500,28.7467,-95.2267,0192,-2.42,-4.37,5.0000,209.0000
1983-11-30 14:00:00 UTC,2445669.083333,28.7467,-95.2267,0192,-2.65,-4.24,5.0000,212.0000
1983-11-30 14:30:00 UTC,2445669.104167,28.7467,-95.2267,0192,-2.80,-4.15,5.0000,214.0000
1983-11-30 15:00:00 UTC,2445669.125000,28.7467,-95.2267,0192,-2.50,-4.33,5.0000,210.0000
1983-11-30 15:30:00 UTC,2445669.145833,28.7467,-95.2267,0192,-2.03,-4.57,5.0000,204.0000
1983-11-30 16:00:00 UTC,2445669.166667,28.7467,-95.2267,0192,-2.03,-4.57,5.0000,204.0000
1983-11-30 16:30:00 UTC,2445669.187500,28.7467,-95.2267,0192,-2.44,-5.48,6.0000,204.0000
1983-11-30 17:00:00 UTC,2445669.208333,28.7467,-95.2267,0192,-2.39,-6.58,7.0000,200.0000
1983-11-30 17:30:00 UTC,2445669.229167,28.7467,-95.2267,0192,-2.28,-6.62,7.0000,199.0000
1983-11-30 18:00:00 UTC,2445669.250000,28.7467,-95.2267,0192,-2.74,-7.52,8.0000,200.0000
1983-11-30 18:30:00 UTC,2445669.270833,28.7467,-95.2267,0192,-3.42,-9.40,10.0000,200.0000
1983-11-30 19:00:00 UTC,2445669.291667,28.7467,-95.2267,0192,-3.58,-10.40,11.0000,199.0000
1983-11-30 19:30:00 UTC,2445669.312500,28.7467,-95.2267,0192,-4.69,-11.05,12.0000,203.0000
1983-11-30 20:00:00 UTC,2445669.333333,28.7467,-95.2267,0192,-5.70,-11.68,13.0000,206.0000
1983-11-30 20:30:00 UTC,2445669.354167,28.7467,-95.2267,0192,-6.36,-12.47,14.0000,207.0000
1983-11-30 21:00:00 UTC,2445669.375000,28.7467,-95.2267,0192,-6.57,-12.36,14.0000,208.0000
1983-11-30 21:30:00 UTC,2445669.395833,28.7467,-95.2267,0192,-6.50,-11.26,13.0000,210.0000
1983-11-30 22:00:00 UTC,2445669.416667,28.7467,-95.2267,0192,-6.18,-10.29,12.0000,211.0000
1983-11-30 22:30:00 UTC,2445669.437500,28.7467,-95.2267,0192,-5.82,-10.50,12.0000,209.0000
1983-11-30 23:00:00 UTC,2445669.458333,28.7467,-95.2267,0192,-5.16,-9.71,11.0000,208.0000
1983-11-30 23:30:00 UTC,2445669.479167,28.7467,-95.2267,0192,-5.33,-9.62,11.0000,209.0000
1983-12-01 00:00:00 UTC,2445669.500000,28.7467,-95.2267,0192,-5.15,-8.57,10.0000,211.0000
1983-12-01 00:30:00 UTC,2445669.520833,28.7467,-95.2267,0192,-4.64,-7.71,9.0000,211.0000
1983-12-01 01:00:00 UTC,2445669.541667,28.7467,-95.2267,0192,-4.70,-6.47,8.0000,216.0000
1983-12-01 01:30:00 UTC,2445669.562500,28.7467,-95.2267,0192,-5.04,-4.86,7.0000,226.0000
1983-12-01 02:00:00 UTC,2445669.583333,28.7467,-95.2267,0192,-3.83,-3.21,5.0000,230.0000
1983-12-01 02:30:00 UTC,2445669.604167,28.7467,-95.2267,0192,-3.06,-2.57,4.0000,230.0000
1983-12-01 03:00:00 UTC,2445669.625000,28.7467,-95.2267,0192,-2.16,-2.08,3.0000,226.0000
1983-12-01 03:30:00 UTC,2445669.645833,28.7467,-95.2267,0192,-1.71,-1.03,2.0000,239.0000
1983-12-01 04:00:00 UTC,2445669.666667,28.7467,-95.2267,0192,-3.00,0.10,3.0000,272.0000
1983-12-01 04:30:00 UTC,2445669.687500,28.7467,-95.2267,0192,-3.93,0.76,4.0000,281.0000
1983-12-01 05:00:00 UTC,2445669.708333,28.7467,-95.2267,0192,-3.98,-0.35,4.0000,265.0000
1983-12-01 05:30:00 UTC,2445669.729167,28.7467,-95.2267,0192,-3.63,-1.69,4.0000,245.0000
1983-12-01 06:00:00 UTC,2445669.750000,28.7467,-95.2267,0192,-4.91,-3.44,6.0000,235.0000
1983-12-01 06:30:00 UTC,2445669.770833,28.7467,-95.2267,0192,-6.58,-6.14,9.0000,227.0000
1983-12-01 07:00:00 UTC,2445669.791667,28.7467,-95.2267,0192,-9.37,-10.40,14.0000,222.0000
1983-12-01 07:30:00 UTC,2445669.812500,28.7467,-95.2267,0192,-10.71,-11.89,16.0000,222.0000
1983-12-01 08:00:00 UTC,2445669.833333,28.7467,-95.2267,0192,-12.02,-12.02,17.0000,225.0000
1983-12-01 08:30:00 UTC,2445669.854167,28.7467,-95.2267,0192,-14.39,-13.89,20.0000,226.0000
1983-12-01 09:00:00 UTC,2445669.875000,28.7467,-95.2267,0192,-15.56,-15.56,22.0000,225.0000
1983-12-01 09:30:00 UTC,2445669.895833,28.7467,-95.2267,0192,-16.37,-17.55,24.0000,223.0000
1983-12-01 10:00:00 UTC,2445669.916667,28.7467,-95.2267,0192,-17.98,-17.37,25.0000,226.0000
1983-12-01 10:30:00 UTC,2445669.937500,28.7467,-95.2267,0192,-19.32,-17.40,26.0000,228.0000
1983-12-01 11:00:00 UTC,2445669.958333,28.7467,-95.2267,0192,-18.28,-17.05,25.0000,227.0000
1983-12-01 11:30:00 UTC,2445669.979167,28.7467,-95.2267,0192,-16.97,-16.97,24.0000,225.0000
1983-12-01 12:00:00 UTC,2445670.000000,28.7467,-95.2267,0192,-16.67,-17.26,24.0000,224.0000
1983-12-01 12:30:00 UTC,2445670.020833,28.7467,-95.2267,0192,-16.82,-15.69,23.0000,227.0000
1983-12-01 13:00:00 UTC,2445670.041667,28.7467,-95.2267,0192,-16.60,-14.43,22.0000,229.0000
1983-12-01 13:30:00 UTC,2445670.062500,28.7467,-95.2267,0192,-16.60,-14.43,22.0000,229.0000
1983-12-01 14:00:00 UTC,2445670.083333,28.7467,-95.2267,0192,-15.85,-13.78,21.0000,229.0000
1983-12-01 14:30:00 UTC,2445670.104167,28.7467,-95.2267,0192,-16.55,-12.93,21.0000,232.0000
1983-12-01 15:00:00 UTC,2445670.125000,28.7467,-95.2267,0192,-18.02,-12.62,22.0000,235.0000
1983-12-01 15:30:00 UTC,2445670.145833,28.7467,-95.2267,0192,-17.20,-12.05,21.0000,235.0000
1983-12-01 16:00:00 UTC,2445670.166667,28.7467,-95.2267,0192,-16.58,-11.18,20.0000,236.0000
1983-12-01 16:30:00 UTC,2445670.187500,28.7467,-95.2267,0192,-16.29,-9.79,19.0000,239.0000
1983-12-01 17:00:00 UTC,2445670.208333,28.7467,-95.2267,0192,-15.43,-9.27,18.0000,239.0000
1983-12-01 17:30:00 UTC,2445670.229167,28.7467,-95.2267,0192,-15.10,-9.80,18.0000,237.0000
1983-12-01 18:00:00 UTC,2445670.250000,28.7467,-95.2267,0192,-15.56,-10.90,19.0000,235.0000
1983-12-01 18:30:00 UTC,2445670.270833,28.7467,-95.2267,0192,-15.37,-11.17,19.0000,234.0000
1983-12-01 19:00:00 UTC,2445670.291667,28.7467,-95.2267,0192,-15.17,-11.43,19.0000,233.0000
1983-12-01 19:30:00 UTC,2445670.312500,28.7467,-95.2267,0192,-13.16,-12.28,18.0000,227.0000
1983-12-01 20:00:00 UTC,2445670.333333,28.7467,-95.2267,0192,-11.33,-13.99,18.0000,219.0000
1983-12-01 20:30:00 UTC,2445670.354167,28.7467,-95.2267,0192,-11.47,-16.38,20.0000,215.0000
1983-12-01 21:00:00 UTC,2445670.375000,28.7467,-95.2267,0192,-12.64,-16.77,21.0000,217.0000
1983-12-01 21:30:00 UTC,2445670.395833,28.7467,-95.2267,0192,-13.85,-17.10,22.0000,219.0000
1983-12-01 22:00:00 UTC,2445670.416667,28.7467,-95.2267,0192,-13.50,-16.09,21.0000,220.0000
1983-12-01 22:30:00 UTC,2445670.437500,28.7467,-95.2267,0192,-13.12,-15.09,20.0000,221.0000
1983-12-01 23:00:00 UTC,2445670.458333,28.7467,-95.2267,0192,-13.38,-14.86,20.0000,222.0000
1983-12-01 23:30:00 UTC,2445670.479167,28.7467,-95.2267,0192,-13.38,-14.86,20.0000,222.0000
1983-12-02 00:00:00 UTC,2445670.500000,28.7467,-95.2267,0192,-13.38,-14.86,20.0000,222.0000
1983-12-02 00:30:00 UTC,2445670.520833,28.7467,-95.2267,0192,-14.59,-15.11,21.0000,224.0000
1983-12-02 01:00:00 UTC,2445670.541667,28.7467,-95.2267,0192,-17.36,-15.09,23.0000,229.0000
1983-12-02 01:30:00 UTC,2445670.562500,28.7467,-95.2267,0192,-19.42,-14.11,24.0000,234.0000
1983-12-02 02:00:00 UTC,2445670.583333,28.7467,-95.2267,0192,-19.66,-13.77,24.0000,235.0000
1983-12-02 02:30:00 UTC,2445670.604167,28.7467,-95.2267,0192,-18.02,-12.62,22.0000,235.0000
1983-12-02 03:00:00 UTC,2445670.625000,28.7467,-95.2267,0192,-17.20,-12.05,21.0000,235.0000
1983-12-02 03:30:00 UTC,2445670.645833,28.7467,-95.2267,0192,-15.17,-11.43,19.0000,233.0000
1983-12-02 04:00:00 UTC,2445670.666667,28.7467,-95.2267,0192,-14.55,-12.21,19.0000,230.0000
1983-12-02 04:30:00 UTC,2445670.687500,28.7467,-95.2267,0192,-15.32,-12.86,20.0000,230.0000
1983-12-02 05:00:00 UTC,2445670.708333,28.7467,-95.2267,0192,-14.97,-11.70,19.0000,232.0000
1983-12-02 05:30:00 UTC,2445670.729167,28.7467,-95.2267,0192,-15.17,-11.43,19.0000,233.0000
1983-12-02 06:00:00 UTC,2445670.750000,28.7467,-95.2267,0192,-13.38,-12.04,18.0000,228.0000
1983-12-02 06:30:00 UTC,2445670.770833,28.7467,-95.2267,0192,-11.57,-13.79,18.0000,220.0000
1983-12-02 07:00:00 UTC,2445670.791667,28.7467,-95.2267,0192,-11.17,-15.37,19.0000,216.0000
1983-12-02 07:30:00 UTC,2445670.812500,28.7467,-95.2267,0192,-12.31,-15.76,20.0000,218.0000
1983-12-02 08:00:00 UTC,2445670.833333,28.7467,-95.2267,0192,-13.50,-16.09,21.0000,220.0000
1983-12-02 08:30:00 UTC,2445670.854167,28.7467,-95.2267,0192,-13.22,-16.32,21.0000,219.0000
1983-12-02 09:00:00 UTC,2445670.875000,28.7467,-95.2267,0192,-11.76,-16.18,20.0000,216.0000
1983-12-02 09:30:00 UTC,2445670.895833,28.7467,-95.2267,0192,-11.74,-17.41,21.0000,214.0000
1983-12-02 10:00:00 UTC,2445670.916667,28.7467,-95.2267,0192,-12.30,-18.24,22.0000,214.0000
1983-12-02 10:30:00 UTC,2445670.937500,28.7467,-95.2267,0192,-11.98,-18.45,22.0000,213.0000
1983-12-02 11:00:00 UTC,2445670.958333,28.7467,-95.2267,0192,-11.66,-18.66,22.0000,212.0000
1983-12-02 11:30:00 UTC,2445670.979167,28.7467,-95.2267,0192,-11.13,-17.81,21.0000,212.0000
1983-12-02 12:00:00 UTC,2445671.000000,28.7467,-95.2267,0192,-10.82,-18.00,21.0000,211.0000
1983-12-02 12:30:00 UTC,2445671.020833,28.7467,-95.2267,0192,-10.30,-17.14,20.0000,211.0000
1983-12-02 13:00:00 UTC,2445671.041667,28.7467,-95.2267,0192,-10.07,-16.11,19.0000,212.0000
1983-12-02 13:30:00 UTC,2445671.062500,28.7467,-95.2267,0192,-10.07,-16.11,19.0000,212.0000
1983-12-02 14:00:00 UTC,2445671.083333,28.7467,-95.2267,0192,-9.80,-15.10,18.0000,213.0000
1983-12-02 14:30:00 UTC,2445671.104167,28.7467,-95.2267,0192,-9.75,-13.93,17.0000,215.0000
1983-12-02 15:00:00 UTC,2445671.125000,28.7467,-95.2267,0192,-9.44,-11.66,15.0000,219.0000
1983-12-02 15:30:00 UTC,2445671.145833,28.7467,-95.2267,0192,-10.97,-10.23,15.0000,227.0000
1983-12-02 16:00:00 UTC,2445671.166667,28.7467,-95.2267,0192,-13.11,-9.18,16.0000,235.0000
1983-12-02 16:30:00 UTC,2445671.187500,28.7467,-95.2267,0192,-13.12,-7.27,15.0000,241.0000
1983-12-02 17:00:00 UTC,2445671.208333,28.7467,-95.2267,0192,-11.78,-5.49,13.0000,245.0000
1983-12-02 17:30:00 UTC,2445671.229167,28.7467,-95.2267,0192,-10.96,-4.88,12.0000,246.0000
1983-12-02 18:00:00 UTC,2445671.250000,28.7467,-95.2267,0192,-9.71,-5.16,11.0000,242.0000
1983-12-02 18:30:00 UTC,2445671.270833,28.7467,-95.2267,0192,-8.19,-5.74,10.0000,235.0000
1983-12-02 19:00:00 UTC,2445671.291667,28.7467,-95.2267,0192,-7.19,-6.95,10.0000,226.0000
1983-12-02 19:30:00 UTC,2445671.312500,28.7467,-95.2267,0192,-7.87,-9.06,12.0000,221.0000
1983-12-02 20:00:00 UTC,2445671.333333,28.7467,-95.2267,0192,-8.81,-10.88,14.0000,219.0000
1983-12-02 20:30:00 UTC,2445671.354167,28.7467,-95.2267,0192,-10.07,-12.43,16.0000,219.0000
1983-12-02 21:00:00 UTC,2445671.375000,28.7467,-95.2267,0192,-12.04,-13.38,18.0000,222.0000
1983-12-02 21:30:00 UTC,2445671.395833,28.7467,-95.2267,0192,-12.73,-12.73,18.0000,225.0000
1983-12-02 22:00:00 UTC,2445671.416667,28.7467,-95.2267,0192,-13.16,-12.28,18.0000,227.0000
1983-12-02 22:30:00 UTC,2445671.437500,28.7467,-95.2267,0192,-12.83,-11.15,17.0000,229.0000
1983-12-02 23:00:00 UTC,2445671.458333,28.7467,-95.2267,0192,-13.21,-10.70,17.0000,231.0000
1983-12-02 23:30:00 UTC,2445671.479167,28.7467,-95.2267,0192,-12.61,-9.85,16.0000,232.0000
1983-12-03 00:00:00 UTC,2445671.500000,28.7467,-95.2267,0192,-11.03,-8.62,14.0000,232.0000
1983-12-03 00:30:00 UTC,2445671.520833,28.7467,-95.2267,0192,-9.06,-7.87,12.0000,229.0000
1983-12-03 01:00:00 UTC,2445671.541667,28.7467,-95.2267,0192,-8.92,-8.03,12.0000,228.0000
1983-12-03 01:30:00 UTC,2445671.562500,28.7467,-95.2267,0192,-9.46,-7.39,12.0000,232.0000
1983-12-03 02:00:00 UTC,2445671.583333,28.7467,-95.2267,0192,-11.14,-6.70,13.0000,239.0000
1983-12-03 02:30:00 UTC,2445671.604167,28.7467,-95.2267,0192,-10.79,-5.26,12.0000,244.0000
1983-12-03 03:00:00 UTC,2445671.625000,28.7467,-95.2267,0192,-9.14,-4.07,10.0000,246.0000
1983-12-03 03:30:00 UTC,2445671.645833,28.7467,-95.2267,0192,-7.42,-3.00,8.0000,248.0000
1983-12-03 04:00:00 UTC,2445671.666667,28.7467,-95.2267,0192,-6.79,-1.69,7.0000,256.0000
1983-12-03 04:30:00 UTC,2445671.687500,28.7467,-95.2267,0192,-5.99,-0.42,6.0000,266.0000
1983-12-03 05:00:00 UTC,2445671.708333,28.7467,-95.2267,0192,-5.00,0.17,5.0000,272.0000
1983-12-03 05:30:00 UTC,2445671.729167,28.7467,-95.2267,0192,-3.95,-0.63,4.0000,261.0000
1983-12-03 06:00:00 UTC,2445671.750000,28.7467,-95.2267,0192,-3.71,-1.50,4.0000,248.0000
1983-12-03 06:30:00 UTC,2445671.770833,28.7467,-95.2267,0192,-3.71,-1.50,4.0000,248.0000
1983-12-03 07:00:00 UTC,2445671.791667,28.7467,-95.2267,0192,-3.56,-1.82,4.0000,243.0000
1983-12-03 07:30:00 UTC,2445671.812500,28.7467,-95.2267,0192,-2.19,-2.05,3.0000,227.0000
1983-12-03 08:00:00 UTC,2445671.833333,28.7467,-95.2267,0192,-1.75,-3.60,4.0000,206.0000
1983-12-03 08:30:00 UTC,2445671.854167,28.7467,-95.2267,0192,-1.17,-3.83,4.0000,197.0000
1983-12-03 09:00:00 UTC,2445671.875000,28.7467,-95.2267,0192,-1.71,-4.70,5.0000,200.0000
1983-12-03 09:30:00 UTC,2445671.895833,28.7467,-95.2267,0192,-2.05,-5.64,6.0000,200.0000
1983-12-03 10:00:00 UTC,2445671.916667,28.7467,-95.2267,0192,-1.57,-6.82,7.0000,193.0000
1983-12-03 10:30:00 UTC,2445671.937500,28.7467,-95.2267,0192,-0.78,-8.97,9.0000,185.0000
1983-12-03 11:00:00 UTC,2445671.958333,28.7467,-95.2267,0192,-0.52,-9.99,10.0000,183.0000
1983-12-03 11:30:00 UTC,2445671.979167,28.7467,-95.2267,0192,-0.96,-10.96,11.0000,185.0000
1983-12-03 12:00:00 UTC,2445672.000000,28.7467,-95.2267,0192,-3.62,-13.52,14.0000,195.0000
1983-12-03 12:30:00 UTC,2445672.020833,28.7467,-95.2267,0192,-7.98,-15.01,17.0000,208.0000
1983-12-03 13:00:00 UTC,2445672.041667,28.7467,-95.2267,0192,-11.57,-13.79,18.0000,220.0000
1983-12-03 13:30:00 UTC,2445672.062500,28.7467,-95.2267,0192,-13.58,-11.81,18.0000,229.0000
1983-12-03 14:00:00 UTC,2445672.083333,28.7467,-95.2267,0192,-13.11,-9.18,16.0000,235.0000
1983-12-03 14:30:00 UTC,2445672.104167,28.7467,-95.2267,0192,-11.02,-6.89,13.0000,238.0000
1983-12-03 15:00:00 UTC,2445672.125000,28.7467,-95.2267,0192,-9.71,-5.16,11.0000,242.0000
1983-12-03 15:30:00 UTC,2445672.145833,28.7467,-95.2267,0192,-9.40,-3.42,10.0000,250.0000
1983-12-03 16:00:00 UTC,2445672.166667,28.7467,-95.2267,0192,-9.70,-2.42,10.0000,256.0000
1983-12-03 16:30:00 UTC,2445672.187500,28.7467,-95.2267,0192,-8.97,-0.78,9.0000,265.0000
1983-12-03 17:00:00 UTC,2445672.208333,28.7467,-95.2267,0192,-9.98,0.70,10.0000,274.0000
1983-12-03 17:30:00 UTC,2445672.229167,28.7467,-95.2267,0192,-10.80,2.10,11.0000,281.0000
1983-12-03 18:00:00 UTC,2445672.250000,28.7467,-95.2267,0192,-10.63,2.85,11.0000,285.0000
1983-12-03 18:30:00 UTC,2445672.270833,28.7467,-95.2267,0192,-10.46,3.40,11.0000,288.0000
1983-12-03 19:00:00 UTC,2445672.291667,28.7467,-95.2267,0192,-10.20,4.12,11.0000,292.0000
1983-12-03 19:30:00 UTC,2445672.312500,28.7467,-95.2267,0192,-10.60,5.63,12.0000,298.0000
1983-12-03 20:00:00 UTC,2445672.333333,28.7467,-95.2267,0192,-10.39,6.00,12.0000,300.0000
1983-12-03 20:30:00 UTC,2445672.354167,28.7467,-95.2267,0192,-9.71,5.16,11.0000,298.0000
1983-12-03 21:00:00 UTC,2445672.375000,28.7467,-95.2267,0192,-9.43,5.67,11.0000,301.0000
1983-12-03 21:30:00 UTC,2445672.395833,28.7467,-95.2267,0192,-9.19,7.71,12.0000,310.0000
1983-12-03 22:00:00 UTC,2445672.416667,28.7467,-95.2267,0192,-7.87,9.06,12.0000,319.0000
1983-12-03 22:30:00 UTC,2445672.437500,28.7467,-95.2267,0192,-6.31,9.01,11.0000,325.0000
1983-12-03 23:00:00 UTC,2445672.458333,28.7467,-95.2267,0192,-5.30,8.48,10.0000,328.0000
1983-12-03 23:30:00 UTC,2445672.479167,28.7467,-95.2267,0192,-4.64,7.71,9.0000,329.0000
1983-12-04 00:00:00 UTC,2445672.500000,28.7467,-95.2267,0192,-5.03,7.46,9.0000,326.0000
1983-12-04 00:30:00 UTC,2445672.520833,28.7467,-95.2267,0192,-5.03,7.46,9.0000,326.0000
1983-12-04 01:00:00 UTC,2445672.541667,28.7467,-95.2267,0192,-5.00,8.66,10.0000,330.0000
1983-12-04 01:30:00 UTC,2445672.562500,28.7467,-95.2267,0192,-4.47,10.05,11.0000,336.0000
1983-12-04 02:00:00 UTC,2445672.583333,28.7467,-95.2267,0192,-3.71,11.41,12.0000,342.0000
1983-12-04 02:30:00 UTC,2445672.604167,28.7467,-95.2267,0192,-2.08,11.82,12.0000,350.0000
1983-12-04 03:00:00 UTC,2445672.625000,28.7467,-95.2267,0192,-0.45,12.99,13.0000,358.0000
1983-12-04 03:30:00 UTC,2445672.645833,28.7467,-95.2267,0192,0.84,11.97,12.0000,4.0000
1983-12-04 04:00:00 UTC,2445672.666667,28.7467,-95.2267,0192,3.03,10.57,11.0000,16.0000
1983-12-04 04:30:00 UTC,2445672.687500,28.7467,-95.2267,0192,6.31,9.01,11.0000,35.0000
1983-12-04 05:00:00 UTC,2445672.708333,28.7467,-95.2267,0192,8.34,8.63,12.0000,44.0000
1983-12-04 05:30:00 UTC,2445672.729167,28.7467,-95.2267,0192,10.24,8.00,13.0000,52.0000
1983-12-04 06:00:00 UTC,2445672.750000,28.7467,-95.2267,0192,11.05,4.69,12.0000,67.0000
1983-12-04 06:30:00 UTC,2445672.770833,28.7467,-95.2267,0192,12.80,2.26,13.0000,80.0000
1983-12-04 07:00:00 UTC,2445672.791667,28.7467,-95.2267,0192,13.00,0.23,13.0000,89.0000
1983-12-04 07:30:00 UTC,2445672.812500,28.7467,-95.2267,0192,12.95,-1.13,13.0000,95.0000
1983-12-04 08:00:00 UTC,2445672.833333,28.7467,-95.2267,0192,12.87,-1.81,13.0000,98.0000
1983-12-04 08:30:00 UTC,2445672.854167,28.7467,-95.2267,0192,14.55,-3.63,15.0000,104.0000